Time,TemperatureF,DewpointF,PressureIn,WindDirection,WindDirectionDegrees,WindSpeedMPH,WindSpeedGustMPH,Humidity,HourlyPrecipIn,Conditions,Clouds,dailyrainin,SoftwareType,DateUTC
2013-03-27 00:02:00,47.0,28.0,30.31,SE,128,3.0,6.0,47,0.00,,,0.00,,2013-03-27 05:02:00,
2013-03-27 00:12:00,47.0,28.0,30.31,SE,128,3.0,6.0,47,0.00,,,0.00,,2013-03-27 05:12:00,
2013-03-27 00:23:00,47.0,28.0,30.31,SE,126,2.0,8.0,48,0.00,,,0.00,,2013-03-27 05:23:00,
2013-03-27 00:32:00,47.0,28.0,30.30,SE,131,3.0,8.0,48,0.00,,,0.00,,2013-03-27 05:32:00,
2013-03-27 00:42:00,47.0,28.0,30.30,SE,131,3.0,8.0,48,0.00,,,0.00,,2013-03-27 05:42:00,
2013-03-27 00:52:00,46.0,28.0,30.30,SE,134,6.0,9.0,49,0.00,,,0.00,,2013-03-27 05:52:00,
2013-03-27 01:02:00,46.0,28.0,30.30,SE,136,5.0,9.0,50,0.00,,,0.00,,2013-03-27 06:02:00,
2013-03-27 01:12:00,46.0,28.0,30.30,SE,136,5.0,9.0,50,0.00,,,0.00,,2013-03-27 06:12:00,
2013-03-27 01:22:00,46.0,27.0,30.29,SE,131,6.0,12.0,48,0.00,,,0.00,,2013-03-27 06:22:00,
2013-03-27 01:32:00,46.0,28.0,30.29,SE,135,2.0,8.0,49,0.00,,,0.00,,2013-03-27 06:32:00,
2013-03-27 01:42:00,46.0,28.0,30.29,SE,135,2.0,8.0,49,0.00,,,0.00,,2013-03-27 06:42:00,
2013-03-27 01:53:00,45.0,27.0,30.29,SE,138,6.0,10.0,50,0.00,,,0.00,,2013-03-27 06:53:00,
2013-03-27 02:02:00,45.0,27.0,30.29,SE,138,6.0,8.0,50,0.00,,,0.00,,2013-03-27 07:02:00,
2013-03-27 02:12:00,45.0,27.0,30.29,SE,138,6.0,8.0,50,0.00,,,0.00,,2013-03-27 07:12:00,
2013-03-27 02:22:00,44.0,27.0,30.28,SE,136,4.0,7.0,51,0.00,,,0.00,,2013-03-27 07:22:00,
2013-03-27 02:32:00,44.0,28.0,30.28,SE,136,3.0,8.0,52,0.00,,,0.00,,2013-03-27 07:32:00,
2013-03-27 02:42:00,44.0,28.0,30.28,SE,136,3.0,8.0,52,0.00,,,0.00,,2013-03-27 07:42:00,
2013-03-27 02:53:00,44.0,28.0,30.28,SE,136,1.0,5.0,53,0.00,,,0.00,,2013-03-27 07:53:00,
2013-03-27 03:02:00,43.0,27.0,30.27,SE,136,2.0,5.0,53,0.00,,,0.00,,2013-03-27 08:02:00,
2013-03-27 03:12:00,43.0,27.0,30.27,SE,136,2.0,5.0,53,0.00,,,0.00,,2013-03-27 08:12:00,
2013-03-27 03:22:00,43.0,28.0,30.27,SE,136,2.0,6.0,54,0.00,,,0.00,,2013-03-27 08:22:00,
2013-03-27 03:32:00,43.0,28.0,30.26,SE,137,5.0,12.0,54,0.00,,,0.00,,2013-03-27 08:32:00,
2013-03-27 03:43:00,43.0,28.0,30.26,SE,137,5.0,12.0,54,0.00,,,0.00,,2013-03-27 08:43:00,
2013-03-27 03:52:00,43.0,27.0,30.25,SE,134,5.0,10.0,53,0.00,,,0.00,,2013-03-27 08:52:00,
2013-03-27 04:01:00,43.0,28.0,30.25,SE,135,7.0,12.0,54,0.00,,,0.00,,2013-03-27 09:01:00,
2013-03-27 04:12:00,43.0,28.0,30.25,SE,135,7.0,12.0,54,0.00,,,0.00,,2013-03-27 09:12:00,
2013-03-27 04:22:00,43.0,28.0,30.25,SE,136,5.0,9.0,56,0.00,,,0.00,,2013-03-27 09:22:00,
2013-03-27 04:32:00,42.0,28.0,30.25,SE,140,5.0,8.0,58,0.00,,,0.00,,2013-03-27 09:32:00,
2013-03-27 04:42:00,42.0,28.0,30.25,SE,140,5.0,8.0,58,0.00,,,0.00,,2013-03-27 09:42:00,
2013-03-27 04:52:00,41.0,28.0,30.25,SE,140,2.0,7.0,59,0.00,,,0.00,,2013-03-27 09:52:00,
2013-03-27 05:02:00,41.0,27.0,30.25,SE,142,7.0,12.0,56,0.00,,,0.00,,2013-03-27 10:02:00,
2013-03-27 05:12:00,41.0,27.0,30.25,SE,142,7.0,12.0,56,0.00,,,0.00,,2013-03-27 10:12:00,
2013-03-27 05:22:00,42.0,26.0,30.25,SE,145,5.0,10.0,53,0.00,,,0.00,,2013-03-27 10:22:00,
2013-03-27 05:32:00,42.0,26.0,30.25,SE,143,6.0,10.0,53,0.00,,,0.00,,2013-03-27 10:32:00,
2013-03-27 05:42:00,42.0,26.0,30.25,SE,143,6.0,10.0,53,0.00,,,0.00,,2013-03-27 10:42:00,
2013-03-27 05:53:00,42.0,27.0,30.25,SE,145,7.0,12.0,54,0.00,,,0.00,,2013-03-27 10:53:00,
2013-03-27 06:02:00,42.0,27.0,30.25,SE,142,6.0,10.0,54,0.00,,,0.00,,2013-03-27 11:02:00,
2013-03-27 06:12:00,42.0,27.0,30.25,SE,142,6.0,10.0,54,0.00,,,0.00,,2013-03-27 11:12:00,
2013-03-27 06:22:00,42.0,27.0,30.26,SSE,149,7.0,12.0,54,0.00,,,0.00,,2013-03-27 11:22:00,
2013-03-27 06:32:00,41.0,27.0,30.27,SE,143,7.0,10.0,56,0.00,,,0.00,,2013-03-27 11:32:00,
2013-03-27 06:42:00,41.0,27.0,30.27,SE,143,7.0,10.0,56,0.00,,,0.00,,2013-03-27 11:42:00,
2013-03-27 06:52:00,41.0,27.0,30.27,SE,146,3.0,7.0,57,0.00,,,0.00,,2013-03-27 11:52:00,
2013-03-27 07:02:00,40.0,26.0,30.27,SE,146,1.0,3.0,57,0.00,,,0.00,,2013-03-27 12:02:00,
2013-03-27 07:12:00,40.0,26.0,30.27,SE,146,1.0,3.0,57,0.00,,,0.00,,2013-03-27 12:12:00,
2013-03-27 07:22:00,40.0,27.0,30.27,SE,146,4.0,8.0,59,0.00,,,0.00,,2013-03-27 12:22:00,
2013-03-27 07:32:00,40.0,27.0,30.27,SE,145,3.0,8.0,59,0.00,,,0.00,,2013-03-27 12:32:00,
2013-03-27 07:43:00,40.0,27.0,30.27,SE,145,3.0,8.0,59,0.00,,,0.00,,2013-03-27 12:43:00,
2013-03-27 07:52:00,40.0,27.0,30.28,SE,145,2.0,6.0,59,0.00,,,0.00,,2013-03-27 12:52:00,
2013-03-27 08:02:00,40.0,27.0,30.27,SE,144,5.0,8.0,59,0.00,,,0.00,,2013-03-27 13:02:00,
2013-03-27 08:12:00,40.0,27.0,30.27,SE,144,5.0,8.0,59,0.00,,,0.00,,2013-03-27 13:12:00,
2013-03-27 08:22:00,41.0,27.0,30.28,SE,146,5.0,8.0,58,0.00,,,0.00,,2013-03-27 13:22:00,
2013-03-27 08:32:00,42.0,28.0,30.28,SE,143,5.0,9.0,57,0.00,,,0.00,,2013-03-27 13:32:00,
2013-03-27 08:42:00,42.0,28.0,30.28,SE,143,5.0,9.0,57,0.00,,,0.00,,2013-03-27 13:42:00,
2013-03-27 08:53:00,43.0,29.0,30.28,SE,143,5.0,10.0,57,0.00,,,0.00,,2013-03-27 13:53:00,
2013-03-27 09:02:00,45.0,30.0,30.28,SSE,158,5.0,10.0,55,0.00,,,0.00,,2013-03-27 14:02:00,
2013-03-27 09:12:00,45.0,30.0,30.28,SSE,158,5.0,10.0,55,0.00,,,0.00,,2013-03-27 14:12:00,
2013-03-27 09:22:00,46.0,30.0,30.28,SSE,162,7.0,12.0,54,0.00,,,0.00,,2013-03-27 14:22:00,
2013-03-27 09:32:00,48.0,32.0,30.29,SSE,151,9.0,16.0,53,0.00,,,0.00,,2013-03-27 14:32:00,
2013-03-27 09:42:00,48.0,32.0,30.29,SSE,151,9.0,16.0,53,0.00,,,0.00,,2013-03-27 14:42:00,
2013-03-27 09:52:00,50.0,34.0,30.29,SSE,155,10.0,20.0,53,0.00,,,0.00,,2013-03-27 14:52:00,
2013-03-27 10:02:00,51.0,34.0,30.29,SE,144,10.0,20.0,52,0.00,,,0.00,,2013-03-27 15:02:00,
2013-03-27 10:12:00,51.0,34.0,30.29,SE,144,10.0,20.0,52,0.00,,,0.00,,2013-03-27 15:12:00,
2013-03-27 10:22:00,52.0,34.0,30.29,South,174,13.0,20.0,51,0.00,,,0.00,,2013-03-27 15:22:00,
2013-03-27 10:33:00,53.0,35.0,30.28,SSE,150,10.0,20.0,51,0.00,,,0.00,,2013-03-27 15:33:00,
2013-03-27 10:42:00,53.0,35.0,30.28,SSE,150,10.0,20.0,51,0.00,,,0.00,,2013-03-27 15:42:00,
2013-03-27 10:52:00,55.0,36.0,30.27,SSW,205,14.0,25.0,48,0.00,,,0.00,,2013-03-27 15:52:00,
2013-03-27 11:02:00,56.0,34.0,30.27,SE,144,14.0,26.0,44,0.00,,,0.00,,2013-03-27 16:02:00,
2013-03-27 11:12:00,56.0,34.0,30.27,SE,144,14.0,26.0,44,0.00,,,0.00,,2013-03-27 16:12:00,
2013-03-27 11:22:00,58.0,36.0,30.27,SSE,148,14.0,26.0,43,0.00,,,0.00,,2013-03-27 16:22:00,
2013-03-27 11:32:00,58.0,34.0,30.27,SE,144,13.0,29.0,40,0.00,,,0.00,,2013-03-27 16:32:00,
2013-03-27 11:42:00,58.0,34.0,30.27,SE,144,13.0,29.0,40,0.00,,,0.00,,2013-03-27 16:42:00,
2013-03-27 11:52:00,60.0,36.0,30.26,SSE,166,13.0,23.0,40,0.00,,,0.00,,2013-03-27 16:52:00,
2013-03-27 12:02:00,60.0,34.0,30.26,SSE,151,16.0,26.0,38,0.00,,,0.00,,2013-03-27 17:02:00,
2013-03-27 12:12:00,60.0,34.0,30.26,SSE,151,16.0,26.0,38,0.00,,,0.00,,2013-03-27 17:12:00,
2013-03-27 12:22:00,61.0,35.0,30.25,SE,136,8.0,21.0,38,0.00,,,0.00,,2013-03-27 17:22:00,
2013-03-27 12:32:00,62.0,35.0,30.25,South,189,16.0,29.0,36,0.00,,,0.00,,2013-03-27 17:32:00,
2013-03-27 12:44:00,62.0,35.0,30.25,South,189,16.0,29.0,36,0.00,,,0.00,,2013-03-27 17:44:00,
2013-03-27 12:52:00,62.0,35.0,30.24,SE,144,16.0,25.0,36,0.00,,,0.00,,2013-03-27 17:52:00,
2013-03-27 13:02:00,64.0,36.0,30.24,SSE,155,13.0,25.0,35,0.00,,,0.00,,2013-03-27 18:02:00,
2013-03-27 13:12:00,64.0,36.0,30.24,SSE,155,13.0,25.0,35,0.00,,,0.00,,2013-03-27 18:12:00,
2013-03-27 13:22:00,64.0,36.0,30.23,ESE,119,13.0,24.0,35,0.00,,,0.00,,2013-03-27 18:22:00,
2013-03-27 13:32:00,64.0,37.0,30.22,South,169,10.0,20.0,36,0.00,,,0.00,,2013-03-27 18:32:00,
2013-03-27 13:42:00,64.0,37.0,30.22,South,169,10.0,20.0,36,0.00,,,0.00,,2013-03-27 18:42:00,
2013-03-27 13:53:00,65.0,37.0,30.21,SE,130,14.0,30.0,36,0.00,,,0.00,,2013-03-27 18:53:00,
2013-03-27 14:02:00,65.0,38.0,30.21,South,178,12.0,25.0,37,0.00,,,0.00,,2013-03-27 19:02:00,
2013-03-27 14:12:00,65.0,38.0,30.21,South,178,12.0,25.0,37,0.00,,,0.00,,2013-03-27 19:12:00,
2013-03-27 14:22:00,66.0,40.0,30.19,SE,142,11.0,22.0,38,0.00,,,0.00,,2013-03-27 19:22:00,
2013-03-27 14:32:00,66.0,40.0,30.19,SSE,163,13.0,26.0,38,0.00,,,0.00,,2013-03-27 19:32:00,
2013-03-27 14:42:00,66.0,40.0,30.19,SSE,163,13.0,26.0,38,0.00,,,0.00,,2013-03-27 19:42:00,
2013-03-27 14:52:00,67.0,40.0,30.17,SE,128,12.0,20.0,37,0.00,,,0.00,,2013-03-27 19:52:00,
2013-03-27 15:02:00,67.0,40.0,30.17,SE,137,15.0,28.0,37,0.00,,,0.00,,2013-03-27 20:02:00,
2013-03-27 15:12:00,67.0,40.0,30.17,SE,137,15.0,28.0,37,0.00,,,0.00,,2013-03-27 20:12:00,
2013-03-27 15:22:00,67.0,40.0,30.16,SSE,159,12.0,24.0,37,0.00,,,0.00,,2013-03-27 20:22:00,
2013-03-27 15:32:00,68.0,41.0,30.14,SSE,162,13.0,33.0,38,0.00,,,0.00,,2013-03-27 20:32:00,
2013-03-27 15:42:00,68.0,41.0,30.14,SSE,162,13.0,33.0,38,0.00,,,0.00,,2013-03-27 20:42:00,
2013-03-27 15:52:00,68.0,41.0,30.14,SE,134,17.0,28.0,38,0.00,,,0.00,,2013-03-27 20:52:00,
2013-03-27 16:02:00,68.0,42.0,30.13,SSE,166,10.0,25.0,39,0.00,,,0.00,,2013-03-27 21:02:00,
2013-03-27 16:12:00,68.0,42.0,30.13,SSE,166,10.0,25.0,39,0.00,,,0.00,,2013-03-27 21:12:00,
2013-03-27 16:22:00,69.0,42.0,30.11,SSE,152,14.0,26.0,38,0.00,,,0.00,,2013-03-27 21:22:00,
2013-03-27 16:32:00,69.0,42.0,30.11,SSE,157,13.0,21.0,37,0.00,,,0.00,,2013-03-27 21:32:00,
2013-03-27 16:43:00,69.0,42.0,30.11,SSE,157,13.0,21.0,37,0.00,,,0.00,,2013-03-27 21:43:00,
2013-03-27 16:52:00,69.0,42.0,30.10,SE,146,13.0,24.0,37,0.00,,,0.00,,2013-03-27 21:52:00,
2013-03-27 17:03:00,69.0,42.0,30.09,SE,144,16.0,26.0,38,0.00,,,0.00,,2013-03-27 22:03:00,
2013-03-27 17:12:00,69.0,42.0,30.09,SE,144,16.0,26.0,38,0.00,,,0.00,,2013-03-27 22:12:00,
2013-03-27 17:23:00,70.0,44.0,30.09,SSE,159,14.0,26.0,39,0.00,,,0.00,,2013-03-27 22:23:00,
2013-03-27 17:33:00,69.0,43.0,30.08,ESE,108,18.0,29.0,39,0.00,,,0.00,,2013-03-27 22:33:00,
2013-03-27 17:42:00,69.0,43.0,30.08,ESE,108,18.0,29.0,39,0.00,,,0.00,,2013-03-27 22:42:00,
2013-03-27 17:52:00,69.0,44.0,30.08,SE,132,10.0,26.0,40,0.00,,,0.00,,2013-03-27 22:52:00,
2013-03-27 18:02:00,69.0,43.0,30.08,SE,137,12.0,24.0,39,0.00,,,0.00,,2013-03-27 23:02:00,
2013-03-27 18:12:00,69.0,43.0,30.08,SE,137,12.0,24.0,39,0.00,,,0.00,,2013-03-27 23:12:00,
2013-03-27 18:22:00,70.0,44.0,30.08,SSE,157,11.0,28.0,39,0.00,,,0.00,,2013-03-27 23:22:00,
2013-03-27 18:32:00,70.0,45.0,30.07,SSE,152,10.0,20.0,40,0.00,,,0.00,,2013-03-27 23:32:00,
2013-03-27 18:42:00,70.0,45.0,30.07,SSE,152,10.0,20.0,40,0.00,,,0.00,,2013-03-27 23:42:00,
2013-03-27 18:52:00,69.0,44.0,30.06,SSE,155,14.0,25.0,41,0.00,,,0.00,,2013-03-27 23:52:00,
2013-03-27 19:02:00,69.0,44.0,30.06,SSE,161,10.0,21.0,41,0.00,,,0.00,,2013-03-28 00:02:00,
2013-03-27 19:12:00,69.0,44.0,30.06,SSE,161,10.0,21.0,41,0.00,,,0.00,,2013-03-28 00:12:00,
2013-03-27 19:22:00,69.0,45.0,30.06,SSE,156,13.0,22.0,42,0.00,,,0.00,,2013-03-28 00:22:00,
2013-03-27 19:32:00,68.0,45.0,30.06,SSE,152,7.0,21.0,43,0.00,,,0.00,,2013-03-28 00:32:00,
2013-03-27 19:42:00,68.0,45.0,30.06,SSE,152,7.0,21.0,43,0.00,,,0.00,,2013-03-28 00:42:00,
2013-03-27 19:52:00,67.0,44.0,30.06,SSE,168,8.0,15.0,44,0.00,,,0.00,,2013-03-28 00:52:00,
2013-03-27 20:02:00,67.0,45.0,30.06,SSE,151,9.0,20.0,45,0.00,,,0.00,,2013-03-28 01:02:00,
2013-03-27 20:12:00,67.0,45.0,30.06,SSE,151,9.0,20.0,45,0.00,,,0.00,,2013-03-28 01:12:00,
2013-03-27 20:22:00,66.0,45.0,30.06,SSE,155,11.0,18.0,46,0.00,,,0.00,,2013-03-28 01:22:00,
2013-03-27 20:32:00,65.0,44.0,30.07,SSE,159,6.0,13.0,47,0.00,,,0.00,,2013-03-28 01:32:00,
2013-03-27 20:42:00,65.0,44.0,30.07,SSE,159,6.0,13.0,47,0.00,,,0.00,,2013-03-28 01:42:00,
2013-03-27 20:53:00,65.0,45.0,30.07,SSE,153,7.0,15.0,48,0.00,,,0.00,,2013-03-28 01:53:00,
2013-03-27 21:02:00,64.0,44.0,30.07,SE,144,6.0,12.0,49,0.00,,,0.00,,2013-03-28 02:02:00,
2013-03-27 21:12:00,64.0,44.0,30.07,SE,144,6.0,12.0,49,0.00,,,0.00,,2013-03-28 02:12:00,
2013-03-27 21:22:00,64.0,45.0,30.08,SSE,150,4.0,12.0,50,0.00,,,0.00,,2013-03-28 02:22:00,
2013-03-27 21:32:00,63.0,45.0,30.09,SE,143,5.0,12.0,51,0.00,,,0.00,,2013-03-28 02:32:00,
2013-03-27 21:42:00,63.0,45.0,30.09,SE,143,5.0,12.0,51,0.00,,,0.00,,2013-03-28 02:42:00,
2013-03-27 21:52:00,63.0,45.0,30.09,SE,143,5.0,12.0,51,0.00,,,0.00,,2013-03-28 02:52:00,
2013-03-27 22:02:00,62.0,45.0,30.10,SE,144,5.0,7.0,53,0.00,,,0.00,,2013-03-28 03:02:00,
2013-03-27 22:12:00,62.0,45.0,30.10,SE,144,5.0,7.0,53,0.00,,,0.00,,2013-03-28 03:12:00,
2013-03-27 22:22:00,61.0,44.0,30.11,SE,144,2.0,6.0,54,0.00,,,0.00,,2013-03-28 03:22:00,
2013-03-27 22:33:00,60.0,44.0,30.12,SE,144,2.0,6.0,56,0.00,,,0.00,,2013-03-28 03:33:00,
2013-03-27 22:42:00,60.0,44.0,30.12,SE,144,2.0,6.0,56,0.00,,,0.00,,2013-03-28 03:42:00,
2013-03-27 22:53:00,60.0,45.0,30.12,SE,144,3.0,7.0,57,0.00,,,0.00,,2013-03-28 03:53:00,
2013-03-27 23:02:00,59.0,45.0,30.12,SE,144,2.0,6.0,59,0.00,,,0.00,,2013-03-28 04:02:00,
2013-03-27 23:12:00,59.0,45.0,30.12,SE,144,2.0,6.0,59,0.00,,,0.00,,2013-03-28 04:12:00,
2013-03-27 23:22:00,59.0,45.0,30.13,SE,141,5.0,8.0,60,0.00,,,0.00,,2013-03-28 04:22:00,
2013-03-27 23:32:00,58.0,45.0,30.13,SE,144,5.0,9.0,61,0.00,,,0.00,,2013-03-28 04:32:00,
2013-03-27 23:42:00,58.0,45.0,30.13,SE,144,5.0,9.0,61,0.00,,,0.00,,2013-03-28 04:42:00,
2013-03-27 23:52:00,58.0,45.0,30.14,SE,144,1.0,5.0,61,0.00,,,0.00,,2013-03-28 04:52:00,